Wind_Speed
25 26 25 26 28 29 31 32 32 32 32 32 32 32 32 32 31 32 33 34 33 33 36 38 37 36 36 36 36 35 35 34 33 33 33 33 32 30 28 26 24 23 21 20 19 18 17 17 16 15 14 14 13 12 12 11 11 11 11 11 11 11 8 7 8 8 8 10 12 13 15 16 17 19 20 22 22 23 23 23 25 25 25 25 25
26 27 27 29 30 29 31 33 33 33 32 32 32 32 32 32 32 33 34 34 32 33 36 37 37 37 38 38 37 37 36 35 34 34 34 33 31 29 27 26 24 23 21 20 19 18 18 16 15 14 13 13 12 11 11 11 11 11 11 11 11 11 10 8 8 9 9 9 11 14 16 17 18 19 21 21 22 23 24 25 27 27 27 26 26
24 24 26 29 30 29 30 32 32 32 32 32 32 32 32 33 34 34 33 32 32 33 35 37 38 38 38 38 38 37 37 36 35 35 34 33 31 29 27 25 24 22 21 20 19 19 18 16 15 14 13 11 11 11 11 11 12 12 12 13 12 13 13 11 10 10 10 9 12 15 16 17 18 19 21 22 23 24 26 27 29 29 29 28 27
24 25 27 30 31 30 31 32 32 33 33 33 32 32 32 33 33 33 32 32 32 33 34 36 37 37 37 38 38 38 37 36 35 34 33 32 30 28 26 24 23 22 20 20 19 18 17 16 14 13 11 10 9 10 12 12 13 14 14 15 15 14 15 15 14 12 11 10 13 16 17 18 20 20 22 23 24 25 27 28 29 29 29 29 29
28 29 30 32 33 33 33 33 33 34 34 33 33 32 32 33 33 32 31 31 32 32 33 34 36 36 37 37 38 38 37 36 35 34 32 30 28 26 25 23 22 21 19 18 18 16 15 14 12 10 8 8 10 11 13 14 15 16 17 17 17 16 16 16 16 16 14 13 14 16 19 20 21 22 24 24 24 26 27 28 28 28 29 29 29
30 31 32 33 34 34 34 34 34 34 34 33 32 32 32 32 32 31 31 31 32 33 34 35 36 37 38 38 38 38 37 36 35 33 31 29 27 25 24 22 21 20 19 18 16 14 13 11 9 7 6 8 11 13 14 15 16 17 18 19 18 18 18 17 18 18 17 17 17 17 17 19 20 22 23 23 23 24 25 25 25 26 27 27 27
30 32 33 34 34 35 35 35 34 34 33 32 32 32 32 32 32 31 31 31 32 33 34 35 37 38 38 39 39 38 38 37 35 34 32 30 28 25 24 22 21 20 19 17 14 13 11 10 8 7 7 9 11 13 15 16 17 19 19 20 19 19 19 19 19 18 18 18 18 18 16 16 18 22 24 23 24 25 25 24 23 21 19 20 22
30 32 34 34 35 35 35 35 34 34 33 32 32 32 32 32 32 31 30 31 32 33 34 35 36 37 38 39 39 39 38 37 36 35 32 30 28 26 25 24 22 20 17 15 14 12 11 10 8 7 8 9 11 13 15 16 18 20 21 21 21 21 21 20 19 19 18 18 18 18 15 14 19 23 23 22 22 23 21 18 19 18 15 16 19
31 33 34 35 36 36 36 35 34 34 33 32 32 32 31 31 31 31 30 31 32 32 33 34 35 36 37 38 39 38 38 38 37 35 33 32 30 28 27 24 21 19 17 15 14 13 11 10 9 9 9 11 12 15 16 17 19 21 22 23 24 23 23 22 21 20 19 19 20 18 14 15 20 21 19 20 21 21 18 15 17 20 17 17 20
30 33 35 35 36 36 36 35 34 33 32 32 32 31 30 30 30 30 30 31 31 31 31 32 34 36 36 37 37 37 37 37 36 36 35 34 32 30 27 24 21 19 18 16 15 13 12 11 11 11 12 13 14 16 18 20 21 23 24 25 27 27 26 25 25 24 22 23 25 21 14 16 22 22 21 23 24 22 19 15 17 19 16 16 19
30 32 34 34 34 34 34 34 33 33 32 32 31 30 30 29 29 29 29 29 29 29 30 32 33 35 36 37 38 38 38 38 38 37 36 34 32 30 27 25 22 21 18 16 14 13 13 14 14 15 14 14 14 16 18 20 22 24 26 27 28 29 29 28 28 28 27 29 30 25 18 21 29 28 25 26 25 22 20 17 16 16 14 14 17
27 28 30 31 32 33 33 33 33 32 32 31 30 29 28 28 29 28 28 28 28 28 30 32 32 32 33 35 37 38 39 39 39 38 36 33 31 29 27 25 23 21 18 15 14 14 15 16 17 18 17 15 15 16 18 21 23 25 27 29 30 32 32 32 31 31 31 32 33 31 27 29 34 34 30 29 25 20 19 17 16 16 15 15 17
24 23 25 29 31 32 32 33 32 32 31 29 28 28 28 28 28 28 27 27 27 27 28 29 30 30 31 32 33 33 35 36 36 35 33 32 30 28 27 24 22 20 19 16 14 15 16 18 20 22 20 17 18 19 21 23 24 26 28 30 32 34 35 35 34 34 34 35 35 36 36 35 36 38 35 31 26 20 18 18 17 17 17 18 20
23 22 23 27 29 30 31 31 31 30 30 28 28 28 27 27 27 27 27 26 26 27 27 27 28 30 31 32 31 30 31 31 31 31 31 30 29 27 25 23 22 22 20 17 14 15 18 20 23 25 24 22 22 23 25 26 27 28 30 32 34 36 37 37 37 37 37 36 36 39 41 39 38 40 37 31 29 26 22 20 19 18 19 20 22
23 22 24 26 28 29 30 30 29 29 28 28 28 27 27 27 27 26 26 26 26 27 27 27 28 30 31 32 31 31 31 31 31 32 31 29 28 27 26 25 24 23 20 15 14 17 21 23 25 27 27 27 27 27 28 29 30 31 32 34 36 37 38 39 39 39 39 38 39 42 44 43 42 42 39 34 33 32 28 26 25 22 22 23 25
23 23 25 26 27 29 29 29 29 28 28 27 27 27 27 26 26 25 25 25 25 25 26 26 26 27 27 28 29 29 30 30 30 30 29 27 27 27 27 25 23 21 17 15 17 20 24 26 27 28 30 32 31 30 31 32 32 33 35 37 38 39 41 42 41 41 40 40 42 44 44 44 41 39 38 35 32 31 27 26 26 21 20 23 25
24 24 25 26 28 29 29 30 29 28 28 27 26 26 26 25 25 24 24 23 23 23 23 23 23 24 24 25 25 25 25 25 26 25 24 25 25 24 23 21 19 18 17 18 21 23 25 27 29 30 32 34 34 34 34 33 33 34 35 37 39 40 44 44 42 42 42 41 42 43 42 42 37 33 33 31 28 27 22 21 22 17 15 18 21
23 25 26 27 28 29 29 29 28 27 27 27 26 25 24 24 23 23 22 22 22 22 22 21 21 22 22 23 23 23 22 21 21 21 21 21 20 19 18 17 17 18 20 22 24 25 27 28 30 32 34 35 36 37 36 34 33 35 36 36 39 42 45 45 43 43 42 39 40 40 40 40 38 36 36 35 33 32 28 28 28 21 17 17 17
24 25 26 26 27 27 27 27 27 27 27 26 25 24 24 23 22 21 21 21 21 21 20 20 20 20 20 19 19 19 19 18 18 18 17 17 17 16 16 17 19 22 24 25 26 27 28 29 31 33 35 36 37 37 36 34 33 35 35 35 39 44 46 43 41 40 39 37 38 37 37 38 37 36 37 36 34 33 32 33 33 28 24 21 17
24 24 24 24 25 26 26 27 27 26 26 25 24 24 23 22 22 21 21 20 19 19 20 20 21 20 20 19 18 17 17 17 16 16 16 16 17 17 18 20 22 24 24 25 27 29 30 31 32 33 33 34 35 34 34 33 33 35 35 35 39 43 43 40 38 37 35 34 35 35 36 37 36 35 35 35 35 33 32 32 32 31 30 28 23
22 22 22 23 24 25 25 26 25 25 25 24 23 22 22 22 22 21 20 20 20 20 20 20 20 20 19 19 19 18 18 18 18 18 18 19 19 20 22 23 23 23 24 26 28 29 29 30 30 31 32 32 32 32 32 29 28 29 31 32 34 35 33 32 33 32 31 33 33 33 35 36 35 34 34 33 33 33 32 31 30 30 32 32 31
20 21 22 22 23 24 24 24 23 23 23 22 21 21 20 20 20 20 21 21 21 21 21 20 20 19 18 18 18 18 18 18 19 19 19 20 20 21 23 23 23 24 25 26 27 28 29 30 31 30 30 30 30 29 27 24 23 26 28 28 29 30 29 29 30 29 27 27 28 27 28 29 28 29 30 32 33 33 32 30 28 29 31 33 35
20 20 21 22 22 23 22 22 22 21 21 20 21 21 21 20 20 21 21 21 21 21 20 20 19 18 18 18 18 18 18 18 19 19 19 20 21 22 23 24 24 24 24 24 26 28 29 30 30 28 27 26 26 24 22 21 21 23 24 25 26 27 27 27 27 26 24 24 23 23 24 25 24 26 28 29 29 29 28 28 26 26 29 32 36
20 21 22 22 22 22 22 21 20 20 20 20 21 21 22 21 21 20 21 21 21 20 20 19 19 18 18 18 19 19 18 18 18 18 19 20 21 22 23 23 23 23 23 24 26 28 27 26 25 23 22 20 19 18 18 18 19 20 22 23 24 25 25 24 23 23 23 23 22 22 22 22 22 23 22 21 22 23 24 25 25 24 27 30 33
21 22 22 22 22 22 21 20 20 20 21 21 21 22 22 22 21 21 21 21 20 19 19 19 18 17 16 17 18 17 17 17 17 17 17 17 18 19 20 20 20 20 22 23 23 21 20 19 19 18 17 17 17 18 19 20 20 21 22 23 24 25 25 24 23 23 23 22 22 23 23 22 21 20 19 20 24 26 26 26 25 25 26 28 31
22 22 22 21 21 21 21 20 20 20 20 20 21 21 22 22 21 19 18 17 17 17 18 18 17 16 15 16 16 15 14 14 14 14 14 15 16 16 17 18 19 20 21 21 18 17 16 16 17 17 17 17 17 17 17 17 16 16 15 15 15 16 16 17 18 19 20 19 20 21 21 22 22 22 23 26 28 27 26 26 26 26 26 27 28
22 22 22 22 22 21 21 22 21 21 21 21 21 21 22 23 21 18 16 17 17 17 18 18 18 17 16 15 14 13 13 13 13 13 14 14 15 15 16 17 17 18 19 18 17 16 15 15 15 14 14 14 13 13 13 13 12 11 9 9 10 10 11 12 13 15 18 19 19 20 21 22 24 25 26 29 28 26 25 25 24 24 25 24 24
23 23 23 24 24 23 23 24 24 24 22 21 21 20 21 21 19 17 17 18 19 18 18 18 17 16 16 15 14 14 13 14 14 13 14 14 14 13 14 14 14 14 14 13 13 12 11 11 10 10 10 10 10 10 10 9 9 8 8 8 9 9 10 11 12 14 15 16 17 18 19 20 20 20 23 27 26 23 22 23 23 22 22 20 20
24 24 24 25 25 24 25 24 24 24 22 20 19 18 17 16 15 14 14 14 13 13 13 14 14 13 13 13 14 15 15 14 13 11 11 11 11 11 10 10 9 9 8 7 7 7 7 7 7 7 8 8 8 8 8 8 8 9 8 8 9 9 9 10 11 12 13 13 15 16 16 17 17 16 17 19 18 15 16 19 20 20 19 18 19
26 25 25 25 25 25 25 24 23 23 22 21 19 16 14 12 11 10 10 10 10 9 9 10 11 11 11 12 12 12 13 11 10 9 9 8 8 7 6 5 4 4 3 3 4 6 7 8 9 8 8 8 7 7 7 6 6 7 7 7 8 8 8 8 9 10 11 12 14 14 15 16 16 14 14 14 14 12 12 15 18 19 18 17 16
27 26 26 26 25 25 25 24 24 23 22 21 20 19 16 12 9 8 8 9 9 9 8 9 10 10 11 11 11 9 9 9 8 7 7 6 6 6 4 3 3 4 5 6 7 9 10 10 9 7 6 5 5 5 4 4 4 5 6 7 7 7 7 7 9 12 12 12 13 13 14 14 14 14 14 14 15 14 13 13 15 17 18 16 14
28 27 26 25 25 25 25 25 24 23 22 22 22 22 21 18 13 10 8 8 8 8 8 9 10 10 10 10 11 9 8 8 7 6 7 7 6 5 4 4 5 7 7 7 7 7 7 6 5 4 3 3 3 4 4 3 4 5 6 6 6 6 7 9 14 15 13 11 12 12 13 13 14 15 15 15 15 16 15 13 12 13 13 13 12
27 28 27 26 25 25 25 25 25 25 25 24 24 25 24 21 17 15 14 12 10 10 10 9 10 11 10 9 10 10 10 10 10 10 9 8 7 7 6 6 7 8 7 6 5 6 6 6 5 4 3 3 3 4 3 3 5 6 7 7 7 8 10 13 15 14 11 9 10 11 10 11 12 13 14 15 14 15 16 15 13 13 12 12 11
26 27 27 27 27 26 26 26 26 26 26 26 25 25 25 23 22 23 22 20 16 15 14 13 12 13 13 12 12 13 12 12 11 10 10 8 7 8 8 8 8 9 7 6 6 7 7 7 7 5 3 3 3 3 4 5 7 8 9 10 10 11 12 13 13 11 10 9 9 9 9 11 11 12 13 13 13 14 15 15 15 15 14 14 14
26 26 26 26 26 26 26 26 26 26 26 26 25 25 24 24 23 23 23 23 21 20 19 17 15 15 14 13 12 11 10 9 9 9 8 7 7 6 6 6 6 7 7 6 7 8 8 8 7 5 4 5 6 6 7 8 9 9 9 10 11 11 12 12 10 10 11 11 9 9 10 10 10 10 11 12 12 13 14 14 14 15 14 15 15
26 26 26 25 26 26 26 26 26 26 26 25 24 24 24 24 23 21 21 23 24 23 21 19 16 14 13 12 11 10 9 8 8 6 5 4 4 4 4 5 6 7 7 6 7 8 8 8 8 7 7 7 8 8 8 8 8 8 8 9 9 9 10 10 9 10 11 11 10 10 12 12 11 10 10 10 11 12 12 13 13 13 13 14 14
26 27 26 25 25 25 25 25 25 25 25 24 23 22 23 22 21 21 22 23 24 23 22 20 17 15 13 13 12 11 9 8 6 4 3 3 4 4 4 5 6 7 7 7 7 7 8 8 8 8 8 8 8 8 7 7 7 7 8 8 8 9 9 9 9 10 11 11 11 12 14 14 14 12 11 10 11 11 12 12 13 13 13 13 13
26 26 26 25 25 25 24 24 23 23 23 22 22 22 22 21 20 20 22 22 22 22 21 19 17 16 15 13 12 10 8 6 4 3 3 3 3 4 5 5 6 6 7 7 7 8 8 8 7 7 7 7 7 7 7 7 7 8 8 8 8 8 9 9 9 10 11 11 11 12 14 15 14 14 13 12 11 11 11 11 12 12 12 12 11
24 24 23 24 24 24 24 24 23 22 22 22 22 22 22 22 21 21 22 22 21 20 19 18 17 16 14 14 13 11 8 6 5 5 4 4 4 5 5 5 6 6 6 7 7 7 7 7 6 6 6 6 7 7 7 7 7 8 9 9 9 9 9 9 10 11 11 12 12 12 13 14 14 14 14 11 10 10 10 11 11 11 10 10 10
25 24 23 23 23 23 23 23 23 23 23 23 23 22 22 22 22 22 21 21 20 19 18 17 16 15 14 13 12 11 10 9 8 7 6 6 5 5 5 5 6 6 6 6 6 6 6 5 5 6 6 6 7 7 7 8 8 8 9 9 10 10 9 10 10 11 11 12 12 13 13 14 14 14 12 10 9 9 10 10 11 11 10 10 10
26 25 24 23 23 23 23 23 23 23 22 22 22 22 21 21 21 21 20 19 19 18 17 16 15 14 13 11 10 11 10 9 8 7 7 6 6 5 5 6 6 6 6 6 5 5 5 5 5 6 6 6 7 7 7 8 8 9 9 10 10 10 10 10 10 11 11 12 13 13 13 13 13 13 13 12 12 12 11 11 11 10 10 10 10
25 25 24 23 23 23 23 23 22 21 21 20 20 20 20 20 19 19 18 18 17 17 17 16 14 13 11 9 9 9 9 8 7 7 6 6 6 6 6 6 6 6 6 6 5 5 5 5 6 6 6 7 8 8 8 9 9 10 10 10 10 11 11 11 10 11 11 12 13 13 13 13 13 13 13 13 13 13 13 12 12 11 10 9 9
24 24 24 23 22 22 22 22 22 21 20 20 19 19 19 19 18 18 17 17 17 17 17 16 15 13 13 11 10 8 7 7 7 7 7 7 8 7 7 7 7 6 6 6 6 6 6 6 7 7 8 8 9 9 10 10 10 11 11 11 12 11 11 11 11 11 12 13 13 13 13 13 13 13 13 13 13 13 13 13 13 12 10 9 8
22 23 23 22 21 21 20 20 20 20 19 19 19 19 18 17 17 17 16 17 17 16 16 15 15 14 13 12 10 8 7 7 8 8 8 9 9 8 8 8 8 7 7 7 7 8 8 8 9 9 9 9 10 11 11 11 12 12 12 12 12 12 11 10 10 11 12 13 13 13 13 13 14 13 13 13 13 13 13 13 13 13 12 10 8
21 22 22 22 21 20 20 19 19 20 20 20 19 18 17 16 16 16 16 16 16 16 15 14 13 13 12 11 10 9 8 8 9 9 10 10 9 9 9 9 9 9 9 9 9 10 10 10 11 11 11 11 11 12 12 12 12 13 13 13 13 13 12 11 11 11 12 12 12 13 13 13 14 14 13 13 13 12 12 13 13 13 12 11 10
20 20 21 21 21 21 21 20 20 20 20 19 19 18 17 17 16 16 16 15 14 14 13 12 12 12 11 10 10 10 10 10 10 11 11 11 10 10 10 11 11 11 11 11 12 12 11 12 12 13 13 13 13 13 13 13 13 14 14 14 14 13 12 11 11 12 12 12 12 12 13 13 14 14 13 12 12 12 12 13 13 13 12 12 12
18 19 19 20 21 21 21 20 20 19 18 18 18 18 17 17 16 15 14 13 12 12 12 11 11 11 11 10 10 10 11 11 11 11 11 11 11 11 12 12 12 12 13 13 13 13 13 14 14 14 14 14 14 14 14 14 14 14 14 15 15 14 13 12 12 12 12 12 12 12 12 13 13 13 12 12 11 12 12 12 13 13 12 12 12
18 19 19 19 20 20 20 19 18 18 18 17 17 16 16 15 14 13 13 12 12 11 11 11 11 11 10 10 11 11 11 12 12 12 13 12 12 12 13 14 14 14 15 15 15 15 15 15 15 16 16 15 15 15 15 14 14 15 15 15 15 14 13 13 13 13 12 12 12 12 12 12 12 12 11 10 10 10 11 11 11 12 12 12 12
17 17 17 18 18 18 18 18 17 17 17 16 16 15 14 13 12 12 12 11 11 11 11 10 11 11 11 11 11 12 12 13 13 14 14 14 14 14 14 15 15 16 16 17 16 16 16 16 16 16 16 16 16 16 16 15 15 15 15 15 14 14 14 13 13 13 12 12 12 12 11 12 11 11 10 9 9 9 10 10 10 10 11 11 11
15 15 15 16 16 15 15 15 15 15 14 14 13 13 13 12 12 11 11 11 11 10 10 10 10 11 11 12 12 12 13 14 14 15 15 15 15 15 16 16 17 17 18 18 17 17 17 17 17 17 17 16 16 16 16 17 16 15 15 14 14 13 13 13 12 12 12 12 12 11 11 12 12 11 10 10 10 10 10 10 9 10 10 10 10
14 14 14 14 14 14 14 13 12 12 12 11 11 11 11 11 11 10 10 10 10 10 10 10 11 11 12 13 13 13 14 15 16 16 17 17 17 17 17 18 18 19 19 19 18 18 17 17 17 17 17 17 17 17 17 17 17 16 15 14 14 13 13 12 12 12 12 12 12 12 12 12 12 11 11 11 11 11 11 11 10 10 11 11 11
Wind_Direction
215 213 214 217 217 219 222 225 225 225 226 226 227 229 229 227 230 232 229 227 227 223 216 212 210 209 207 207 208 209 208 206 204 201 199 198 199 198 196 194 194 196 197 198 200 202 204 203 203 202 201 202 203 207 212 216 220 223 227 231 236 241 237 242 263 269 263 264 261 259 261 262 264 269 272 277 284 289 293 293 293 295 297 298 299
213 214 216 218 219 220 222 223 224 225 225 225 227 228 228 229 231 231 228 227 228 224 217 212 209 207 206 206 207 207 205 203 200 198 197 197 196 195 194 194 195 196 197 199 199 200 201 202 203 202 202 206 209 215 223 228 232 237 242 245 247 252 249 247 261 270 269 270 269 270 273 272 269 270 275 280 285 289 292 293 293 295 296 296 296
210 211 214 217 218 219 222 223 223 224 224 225 227 228 229 229 229 228 227 227 228 225 219 212 208 207 206 205 205 204 203 201 199 197 197 197 195 193 194 196 197 197 197 199 200 199 200 201 203 205 206 210 217 226 235 241 245 250 254 255 255 258 260 257 255 263 270 270 270 273 275 275 274 274 279 285 288 290 291 292 294 295 295 296 295
207 208 211 215 217 218 221 223 223 223 223 225 226 227 227 228 227 226 227 228 228 225 219 213 209 207 205 204 204 202 201 199 198 197 198 198 197 195 195 196 198 199 199 201 202 201 202 203 204 206 212 221 234 244 250 254 257 259 261 262 261 261 266 265 259 259 267 271 273 275 273 272 275 279 284 289 291 291 291 292 294 295 296 296 296
212 212 212 214 216 218 220 222 222 223 223 224 225 226 226 225 225 225 227 228 227 223 217 212 210 209 206 204 203 201 200 199 199 198 198 198 198 198 197 197 198 199 200 203 204 204 206 207 208 210 222 241 254 260 263 265 266 266 266 267 266 266 269 271 267 263 264 266 271 275 275 277 280 283 287 290 290 291 291 292 294 295 296 296 296
214 214 214 213 215 217 218 220 221 222 223 224 224 225 225 224 224 226 227 227 225 220 214 211 210 210 208 206 204 201 200 200 200 200 199 198 198 199 198 197 198 200 201 202 204 206 207 207 209 217 236 256 264 269 272 273 273 274 273 271 272 271 271 271 270 267 264 266 270 272 274 278 282 287 290 290 289 289 289 290 292 292 292 293 294
214 214 215 214 214 215 217 220 222 222 224 225 225 225 224 223 224 225 226 225 222 217 213 211 211 210 209 207 205 203 202 201 201 201 200 199 198 198 198 198 200 201 202 201 202 204 206 206 209 221 242 260 270 274 276 277 278 279 277 275 274 273 272 270 268 266 265 266 268 269 269 272 278 284 287 288 287 286 286 286 287 287 283 282 284
214 214 214 214 214 216 217 220 221 222 224 225 224 223 222 222 223 224 224 223 220 216 214 213 211 209 209 208 206 205 203 202 201 201 200 199 199 199 199 200 201 201 200 202 203 205 206 207 213 228 245 259 269 273 275 278 280 281 280 279 278 275 271 267 264 264 264 264 266 267 267 269 277 282 284 283 281 283 283 279 279 280 275 272 274
214 213 213 214 215 216 217 219 220 222 222 222 221 220 220 221 222 223 223 221 218 217 216 215 212 210 208 207 206 205 203 203 203 202 202 201 201 202 201 201 201 199 199 201 204 208 209 211 221 234 244 254 262 266 269 272 276 279 282 283 281 276 270 265 262 262 262 263 264 264 263 265 272 275 272 270 272 277 278 269 269 276 278 274 274
213 212 213 214 215 216 217 218 219 220 220 219 219 219 219 221 221 222 223 220 218 216 214 213 213 211 208 206 205 205 204 205 206 206 206 205 203 201 201 202 200 199 200 202 204 209 213 218 228 235 242 254 263 267 269 269 270 274 279 281 280 275 270 265 262 261 261 262 264 264 258 261 269 268 265 269 273 274 271 263 265 275 277 274 278
212 213 213 214 214 215 215 216 217 218 218 217 218 218 218 219 219 219 219 217 215 215 213 212 212 211 210 210 208 207 206 206 207 207 207 207 205 203 202 201 201 201 201 201 205 213 219 226 232 237 244 259 273 279 279 276 275 277 280 282 280 276 271 266 264 263 262 262 264 264 257 261 271 271 268 272 272 268 266 263 261 269 269 268 277
210 211 212 213 214 213 212 212 214 216 216 216 216 216 216 216 216 216 215 214 212 212 212 213 213 211 211 210 208 207 207 207 207 207 206 207 207 207 204 202 202 201 200 204 214 220 224 232 237 239 246 264 279 285 286 285 284 284 285 285 284 280 276 270 265 264 263 262 263 263 261 264 271 273 271 270 269 264 264 262 254 257 260 260 268
207 207 210 212 212 211 211 210 210 212 214 213 212 212 212 212 213 213 212 211 210 209 210 212 212 210 209 208 207 207 207 206 207 207 207 207 208 207 206 204 204 204 204 212 223 226 228 237 242 242 248 265 276 282 287 290 289 288 287 285 284 282 280 275 270 268 266 263 261 263 267 266 267 273 274 272 269 264 260 258 253 254 257 257 264
204 205 207 209 210 209 208 207 207 208 210 209 208 208 209 210 211 211 210 207 206 208 208 208 209 210 210 209 208 208 208 207 207 207 208 209 208 207 206 207 208 209 210 218 230 233 232 238 244 246 251 262 271 277 284 288 289 288 286 284 283 282 280 276 273 271 268 263 260 265 273 271 268 273 276 273 272 269 264 262 260 259 260 261 267
201 203 204 205 206 205 204 203 202 204 205 206 205 206 207 208 208 208 208 207 207 207 207 206 208 209 210 209 208 209 210 209 208 208 208 209 208 208 208 209 210 209 211 224 241 242 237 239 245 250 253 259 266 274 280 283 285 285 284 284 283 282 278 274 271 270 267 265 265 269 276 275 272 274 275 274 275 275 273 271 270 268 267 269 272
199 200 201 201 201 201 200 199 199 201 202 202 202 203 205 206 206 205 205 206 207 206 205 206 207 206 207 207 207 208 209 209 209 209 208 208 208 207 208 208 209 209 217 237 252 252 244 241 246 252 255 258 264 271 276 278 280 282 283 284 283 282 280 277 273 270 267 267 268 270 273 275 274 275 275 275 274 276 277 275 272 268 264 266 270
198 198 198 199 198 198 198 198 197 199 200 200 200 201 202 202 201 202 200 198 198 200 200 202 204 205 205 205 205 206 205 205 206 207 205 205 207 207 207 207 210 217 231 247 257 257 250 246 249 256 260 262 265 269 272 274 278 280 281 283 283 282 282 282 279 276 273 270 269 268 269 271 272 273 274 273 272 274 272 265 264 258 249 255 261
196 196 197 198 197 197 198 198 196 196 197 198 199 199 199 198 198 198 197 195 195 196 198 198 201 205 207 206 206 206 205 203 203 203 203 205 209 211 210 212 220 230 242 253 260 261 256 252 255 260 264 266 268 270 271 273 277 279 279 282 283 282 283 284 284 283 281 278 276 276 275 275 276 275 275 274 272 271 266 262 265 261 247 247 256
195 196 196 197 197 197 196 195 195 195 196 196 198 197 196 196 196 195 195 195 194 194 196 196 197 201 205 206 206 205 204 204 206 207 207 208 211 214 216 224 232 239 248 257 263 264 260 257 259 263 267 270 272 273 274 276 278 279 281 280 278 279 284 286 284 284 284 284 284 284 284 284 285 283 283 283 281 276 270 268 269 265 257 255 256
194 195 195 194 194 194 194 194 195 196 196 195 196 195 194 191 190 189 191 194 194 193 194 197 198 200 202 202 201 200 200 200 204 208 210 212 215 218 223 230 236 243 253 261 265 266 264 263 264 266 269 273 276 277 280 281 281 282 282 277 273 279 287 289 285 285 285 286 286 287 287 288 288 287 288 289 289 286 282 277 272 265 262 262 259
190 190 190 190 190 190 192 194 195 195 195 194 191 190 190 188 187 187 189 190 190 190 191 194 197 198 198 200 200 200 200 200 201 203 207 213 218 223 228 234 241 250 260 264 265 265 265 265 267 270 273 276 279 281 284 284 282 280 278 275 275 282 288 288 286 286 284 284 285 284 284 285 285 285 286 286 288 288 286 283 279 270 264 261 258
184 184 184 184 185 186 188 190 192 190 190 190 186 183 185 188 189 188 186 185 184 185 187 189 191 192 194 199 203 204 205 204 205 207 212 217 223 228 234 239 246 255 261 262 262 263 265 269 272 274 275 277 281 284 285 282 277 273 273 274 278 283 285 285 287 287 285 285 284 281 281 282 282 284 286 286 288 288 285 285 285 278 270 265 260
177 177 177 178 179 182 183 185 186 185 185 185 184 181 180 182 184 183 180 179 178 179 182 183 185 186 190 196 202 206 209 209 211 214 218 222 226 230 236 242 249 255 257 259 262 266 270 273 274 275 277 280 284 286 285 281 277 276 277 279 282 284 285 286 286 286 285 285 283 280 282 283 281 283 286 287 290 291 287 288 290 282 274 271 268
169 169 171 173 174 177 178 179 181 181 180 181 179 177 175 175 175 176 176 175 173 174 177 180 182 185 189 196 203 209 212 214 217 219 221 224 229 233 238 244 248 251 255 259 265 269 271 272 274 277 280 283 283 283 280 277 277 277 279 282 284 286 287 287 287 287 285 283 282 281 284 287 286 287 287 287 291 294 292 294 295 285 275 272 271
163 163 166 167 168 170 171 173 176 176 176 176 174 171 169 168 168 170 174 175 174 175 178 182 185 186 189 197 204 208 212 215 219 221 223 226 230 233 238 243 246 248 252 257 262 265 267 270 273 276 276 275 275 277 278 279 280 282 283 284 284 284 284 284 285 284 282 280 281 283 285 288 288 288 287 289 294 297 297 298 297 291 283 277 273
156 157 158 159 162 164 162 163 168 170 171 173 172 170 170 169 168 169 173 176 177 180 183 185 188 190 192 199 205 207 209 213 216 218 220 222 226 229 233 238 241 242 244 248 254 260 264 268 272 273 276 279 282 286 289 294 300 302 301 296 292 288 287 287 287 287 287 287 288 289 291 294 295 294 296 299 300 301 300 300 297 293 288 282 275
153 153 154 154 158 161 160 159 162 165 167 169 171 172 174 175 174 174 176 180 181 184 188 189 191 192 193 197 201 204 206 210 212 214 215 218 221 224 226 230 233 236 240 246 253 261 267 271 276 280 285 292 298 300 303 310 316 317 311 306 301 294 290 290 290 291 293 295 296 298 302 304 304 303 303 304 304 302 300 300 296 291 288 283 275
154 155 156 156 158 162 163 162 162 163 167 170 172 174 178 181 182 180 182 184 184 186 189 191 192 193 194 195 196 198 205 210 210 210 211 212 214 216 219 225 229 234 243 251 259 268 275 280 285 293 300 304 306 306 304 306 307 305 302 301 298 291 287 288 288 288 289 293 296 299 302 303 302 302 302 302 303 301 300 299 294 289 287 280 272
155 156 157 158 160 162 164 165 165 165 166 168 170 172 175 180 180 179 181 183 184 188 191 192 193 192 193 196 194 194 201 206 205 203 203 205 208 212 216 221 225 232 243 256 267 274 281 288 291 295 298 298 298 299 297 297 299 300 301 303 302 299 297 296 296 296 297 299 298 298 300 300 298 299 300 300 301 299 296 296 294 290 285 276 270
153 155 157 159 161 163 164 165 166 166 164 162 160 158 161 169 172 172 173 173 175 181 186 189 192 190 188 191 192 195 199 196 189 188 191 192 195 199 202 210 227 248 264 272 267 263 267 275 279 280 281 283 287 291 293 297 305 308 311 313 312 311 310 308 308 309 309 307 304 300 300 299 297 297 298 297 299 300 295 292 293 291 284 276 271
153 156 160 163 164 165 165 164 165 165 163 160 156 147 139 137 141 150 160 165 171 177 177 177 179 179 178 177 173 172 177 173 169 173 178 181 189 195 202 227 255 268 270 262 256 256 260 266 270 272 273 274 278 285 294 308 317 318 320 318 315 320 326 323 318 318 316 312 309 305 303 302 300 300 300 297 298 300 297 290 290 290 284 277 273
158 159 163 165 165 167 166 165 165 165 162 160 157 148 136 125 116 118 131 140 147 150 149 150 153 153 160 168 163 154 151 153 155 156 160 167 174 175 180 204 215 221 232 243 249 252 254 256 258 261 265 268 279 291 302 321 325 320 322 322 320 325 326 316 314 317 318 314 312 311 309 309 308 306 305 304 302 302 301 295 291 288 283 277 274
165 164 165 165 165 167 167 166 167 167 164 162 160 154 147 137 127 122 118 114 115 118 119 125 131 131 134 145 145 135 132 137 141 144 153 160 159 159 171 197 219 228 231 235 245 252 255 259 263 265 268 275 287 295 301 311 314 312 312 313 312 312 313 315 319 323 324 320 319 319 317 318 318 315 311 310 308 306 305 304 301 297 290 285 283
168 168 168 168 167 169 170 170 170 169 168 166 164 161 156 149 143 137 131 125 120 116 114 117 122 124 125 127 131 133 140 151 159 165 175 184 189 193 200 214 238 254 253 240 240 247 253 260 263 263 266 271 274 286 295 298 302 305 305 306 310 314 319 326 331 331 329 329 328 326 323 322 323 320 317 315 313 311 309 308 309 307 303 299 297
169 169 169 170 170 171 172 173 173 171 170 169 168 166 161 154 149 145 142 140 135 129 128 130 133 135 136 133 132 137 146 160 174 186 194 200 206 215 218 218 232 252 253 239 235 237 239 245 249 248 257 268 272 281 291 292 297 303 305 309 317 323 327 333 335 331 333 336 331 325 324 324 323 323 320 317 316 314 313 313 313 312 310 307 305
170 168 169 172 173 172 173 174 174 173 173 172 171 169 164 160 156 154 153 152 147 141 141 143 144 146 146 137 129 133 147 162 176 187 195 196 199 210 214 204 210 225 230 227 229 231 234 240 245 248 258 269 275 282 288 292 298 306 309 313 320 326 329 335 334 329 331 334 328 325 327 326 324 325 323 318 316 316 314 315 315 313 310 308 306
171 170 170 172 174 173 172 174 174 175 174 173 171 169 167 165 164 160 159 159 155 151 151 153 152 152 152 146 141 147 163 179 189 193 195 189 189 195 198 197 201 209 216 221 227 232 238 246 251 255 262 270 275 280 286 293 300 307 310 312 316 321 326 329 325 323 327 330 328 328 331 331 329 327 323 318 315 315 314 314 313 311 309 308 306
171 170 170 171 171 171 170 169 171 172 172 171 171 170 168 166 165 162 161 162 161 158 157 158 159 160 161 164 167 172 180 190 198 207 207 198 191 190 192 196 201 204 209 217 222 227 235 244 251 256 261 267 272 278 287 295 300 303 306 307 310 315 319 320 318 320 324 327 326 326 329 331 331 329 326 320 313 311 313 312 310 310 310 309 308
166 166 167 167 168 168 167 165 165 166 167 168 169 170 169 166 164 163 163 163 163 162 162 163 166 169 172 177 183 191 197 201 206 210 205 196 193 192 191 194 198 201 203 208 212 217 225 234 243 251 258 265 273 280 286 291 294 297 299 302 306 310 312 313 315 318 320 320 320 322 324 327 329 329 327 322 314 311 313 311 309 309 308 307 306
162 161 163 165 165 165 165 164 163 164 165 166 166 168 169 167 166 166 167 166 165 166 167 169 172 176 181 184 188 194 199 203 203 204 201 198 197 196 194 195 198 198 199 200 202 210 221 228 237 248 257 263 270 277 282 285 290 293 295 299 303 306 310 311 311 312 312 312 312 315 318 322 325 327 327 322 315 313 312 310 309 308 304 302 303
162 160 161 163 164 163 162 162 163 165 166 166 166 166 168 168 167 167 167 167 167 168 170 174 178 180 182 187 189 190 195 199 201 201 202 204 205 205 205 205 203 201 202 204 207 214 224 234 242 249 256 261 267 273 278 283 286 289 293 296 300 303 306 308 307 306 305 306 307 310 314 317 321 323 322 320 319 318 314 311 310 309 306 305 305
164 162 161 162 164 164 162 162 162 163 164 164 165 166 166 166 166 167 167 168 170 171 172 174 177 175 173 180 188 188 188 194 201 204 207 211 214 215 216 215 214 214 215 217 222 228 234 244 252 255 258 265 269 272 276 280 283 287 290 292 295 299 302 303 304 302 301 302 305 308 310 313 316 316 317 318 319 319 318 316 314 312 309 306 305
165 162 161 161 163 163 162 161 160 160 161 162 162 162 164 164 165 167 170 171 173 176 175 175 175 172 171 181 194 198 195 199 207 213 217 220 221 223 224 225 228 232 235 237 242 247 251 256 260 263 265 267 270 272 275 277 279 282 285 288 290 294 297 299 299 299 297 299 303 306 308 310 312 312 313 316 317 317 318 318 316 314 310 305 304
164 161 160 159 160 160 159 159 159 158 159 160 160 160 163 166 167 170 173 174 175 178 179 180 182 183 185 193 203 209 209 213 219 222 224 226 227 229 233 237 241 244 249 253 255 258 262 264 265 267 269 269 270 272 274 275 276 279 282 284 286 289 293 295 294 293 293 295 299 302 305 307 308 308 309 312 314 315 317 317 315 314 312 307 303
164 162 160 158 157 157 157 157 159 159 159 160 160 161 165 170 171 173 175 177 177 179 182 185 189 194 199 205 211 215 219 224 228 229 229 231 234 236 241 246 250 253 256 259 261 262 265 267 268 271 272 271 271 271 272 273 275 277 278 281 284 287 290 290 287 286 288 290 294 297 300 302 303 304 306 308 310 312 313 312 311 311 311 309 306
164 163 161 159 158 157 157 158 160 161 161 163 165 165 167 171 174 175 177 179 181 183 187 191 195 200 206 211 217 222 226 228 230 232 234 236 239 242 247 252 255 258 259 261 263 265 266 268 270 273 274 272 271 271 271 272 274 275 277 280 282 284 285 284 281 281 283 285 287 290 293 296 297 299 300 302 304 305 307 309 310 309 308 308 308
162 161 161 160 159 159 159 160 161 163 164 167 169 170 171 172 175 177 179 182 186 189 193 197 201 207 214 219 223 227 230 233 235 239 242 244 246 249 252 255 258 260 261 263 264 267 269 270 272 274 274 273 272 271 271 271 273 275 277 278 280 282 283 280 278 278 279 279 280 282 286 290 293 295 297 299 300 301 303 306 308 307 308 308 308
160 159 159 161 162 161 161 162 164 166 168 169 171 174 174 175 178 181 184 188 192 196 200 205 210 215 220 225 229 231 235 239 242 246 249 251 253 255 256 258 260 261 262 264 266 268 270 271 272 272 272 272 272 271 271 272 272 274 276 278 280 281 279 277 276 276 274 273 274 276 279 282 287 289 292 295 298 300 303 305 305 305 305 305 305
158 159 160 162 164 165 166 167 168 170 172 173 174 176 178 180 184 188 191 195 199 203 208 214 218 223 227 230 234 237 241 246 250 254 257 258 258 258 259 260 262 263 264 266 268 269 269 270 269 269 270 270 270 271 272 272 273 274 276 277 277 277 276 276 275 273 270 268 269 270 271 275 279 281 284 289 294 297 300 304 305 305 304 304 304
157 159 161 163 165 166 167 168 170 173 175 177 179 181 183 187 191 195 199 204 209 213 218 222 226 231 235 237 241 246 251 254 258 260 262 262 262 262 262 263 264 265 267 268 268 268 267 266 266 266 266 267 268 270 271 273 274 274 274 274 273 273 273 272 271 269 268 266 266 265 265 267 271 274 277 282 286 288 291 296 300 303 304 304 305
156 159 161 163 165 167 168 170 174 177 180 183 187 190 193 197 201 206 211 215 219 223 228 231 235 239 243 246 251 254 257 260 263 264 265 265 265 265 265 266 266 267 268 268 268 267 266 264 263 263 263 265 267 269 271 272 273 273 271 270 270 269 269 269 268 267 264 261 259 260 260 262 266 270 273 276 279 281 283 287 290 293 296 297 298
Height
786 787 788 789 790 792 794 795 797 798 800 802 803 805 807 809 810 812 812 813 814 816 817 819 822 823 825 827 830 832 835 837 840 842 844 847 849 851 853 855 857 859 861 863 865 867 870 871 873 874 876 877 878 879 880 881 882 882 883 883 883 883 884 884 883 882 881 881 881 880 880 881 880 879 879 878 877 876 876 875 875 874 874 873 873
782 784 786 787 789 791 792 793 794 795 797 799 800 802 804 806 808 809 810 811 813 814 816 818 820 821 822 825 828 830 833 835 838 840 842 845 847 849 851 853 855 857 859 862 864 867 869 871 873 874 875 877 878 879 880 881 882 882 882 883 883 882 883 883 882 881 880 879 879 878 878 878 878 877 876 876 875 874 873 872 872 871 871 870 869
779 781 784 785 787 789 790 791 792 793 795 796 797 799 801 803 804 806 808 809 811 813 814 816 818 819 821 823 826 828 831 834 836 838 841 843 846 848 850 852 854 856 859 861 864 866 868 871 872 874 875 876 878 879 880 881 881 881 881 881 882 881 881 881 881 880 879 878 877 877 876 876 875 875 874 873 872 871 870 869 869 868 867 867 866
776 778 780 782 785 787 788 789 790 791 792 793 795 797 798 800 802 803 805 807 809 811 813 815 817 818 820 822 824 827 830 833 835 838 841 843 845 847 849 851 853 856 858 860 863 866 868 870 871 873 875 876 877 879 879 880 880 880 880 880 880 879 879 879 879 879 878 877 876 875 875 874 873 872 871 870 870 868 867 866 865 864 863 863 862
773 774 776 778 781 784 785 786 787 788 790 791 792 794 796 798 799 801 803 805 806 809 811 813 815 817 819 821 823 825 828 832 835 837 840 842 844 846 848 851 853 856 858 860 863 865 867 869 871 872 874 876 877 878 878 879 879 879 879 878 878 878 878 878 878 877 877 876 874 873 873 872 870 869 868 868 867 866 864 863 862 861 860 859 858
769 771 773 775 777 780 782 783 784 785 787 788 790 792 794 795 797 799 801 802 804 806 808 811 813 815 817 819 822 824 827 830 833 836 839 841 843 846 848 851 853 855 857 860 862 864 866 868 870 872 873 875 876 877 877 877 877 877 877 877 877 877 877 876 876 875 875 874 873 872 870 869 868 867 866 865 864 863 862 860 859 858 856 855 854
766 768 770 772 773 775 777 780 782 783 785 786 788 790 791 793 795 797 799 800 802 804 806 809 811 813 815 817 820 822 825 828 831 834 836 839 842 845 847 850 852 854 856 859 861 863 865 867 869 870 872 873 874 875 876 876 876 876 876 876 876 876 875 875 874 873 873 872 870 869 868 867 866 865 864 863 862 861 860 858 856 855 854 852 850
763 765 767 768 770 771 774 777 779 781 783 784 786 787 789 791 793 795 797 799 800 802 804 807 809 812 813 815 817 820 823 825 828 831 834 837 840 843 846 848 850 852 855 857 860 862 863 865 867 869 870 872 873 874 874 874 874 874 874 874 874 874 874 873 872 871 871 869 868 866 865 865 863 862 862 861 860 858 858 856 854 852 852 850 848
760 762 763 764 766 768 771 773 776 778 780 782 783 785 787 789 791 793 795 797 799 801 803 805 808 810 812 813 816 818 820 823 825 829 832 835 838 841 843 846 848 851 853 855 858 860 862 864 866 867 869 870 871 871 872 872 872 871 871 871 872 872 872 871 870 870 869 867 865 863 863 862 860 860 859 857 857 856 855 855 852 850 849 847 845
757 758 759 760 762 765 767 770 773 776 777 779 781 783 785 787 789 791 793 795 798 800 803 805 806 809 810 812 814 817 819 822 824 827 829 832 835 838 841 844 846 849 851 853 856 858 860 863 864 866 867 868 869 869 869 869 869 869 869 869 869 869 869 868 868 867 866 864 862 861 860 858 857 856 855 853 853 852 852 851 849 847 847 844 841
754 755 756 757 760 762 765 768 771 773 775 777 779 781 783 785 787 790 792 794 797 799 801 803 804 806 809 810 812 815 817 819 822 824 827 829 832 835 838 841 844 846 849 852 854 857 859 861 863 865 866 866 867 867 867 867 867 866 866 866 866 866 865 865 865 864 863 861 858 858 858 855 853 852 851 850 849 848 848 847 846 845 844 842 839
751 752 754 755 758 760 763 765 768 770 773 775 777 779 782 784 786 788 791 793 795 797 800 802 804 806 808 810 811 813 815 817 819 822 825 828 831 834 836 839 841 844 847 850 852 855 857 859 861 863 863 864 865 865 865 864 864 864 863 862 862 862 861 861 861 861 860 857 855 855 854 852 849 848 847 846 845 845 844 843 843 842 841 839 836
748 750 751 753 755 758 760 763 766 769 771 773 776 778 780 782 784 787 789 792 794 796 798 801 804 806 808 810 812 813 815 817 820 823 825 828 831 833 835 837 840 843 845 848 850 853 855 858 859 860 861 862 862 862 862 861 861 861 860 859 858 857 857 857 857 857 856 854 852 850 849 848 846 843 843 843 842 842 841 839 839 838 837 835 833
745 747 749 751 754 756 759 762 765 767 770 772 774 776 778 781 783 785 788 790 792 795 797 800 802 804 806 808 810 813 815 818 820 823 826 828 830 832 834 836 839 841 843 846 848 851 853 855 856 857 859 859 859 859 859 859 858 857 857 856 854 853 853 852 852 852 851 850 849 845 843 843 842 840 840 840 838 838 837 836 835 834 833 832 830
743 745 747 749 752 755 757 760 763 766 768 770 772 774 776 779 781 784 786 788 790 793 795 798 800 802 804 806 808 810 813 816 818 820 823 826 829 831 832 834 836 839 841 844 846 848 850 852 853 855 856 856 856 856 856 856 855 854 853 852 851 850 849 848 847 847 846 845 844 841 839 838 838 837 837 837 835 834 834 833 832 831 830 828 826
740 742 745 747 750 753 756 759 762 764 766 769 770 773 775 777 780 782 785 787 789 792 794 797 799 801 804 806 807 809 811 814 816 818 821 824 826 828 830 832 834 837 839 842 844 846 848 849 850 851 852 852 853 854 854 853 852 851 849 848 846 845 843 843 843 843 842 841 839 837 835 834 834 834 834 834 832 832 831 830 828 828 827 825 822
738 740 743 745 748 751 754 757 760 762 765 767 769 772 774 777 779 781 784 786 789 791 794 796 798 801 803 805 807 809 811 814 816 818 820 822 824 827 829 831 834 836 838 840 842 843 845 847 848 848 849 849 850 851 851 850 849 847 846 844 843 840 838 838 839 839 838 837 836 834 833 832 832 831 831 831 831 830 829 826 824 825 824 821 817
736 739 741 743 746 749 752 755 758 761 764 766 768 771 773 776 778 781 784 786 788 791 793 795 798 801 803 804 806 808 811 813 815 817 820 822 824 827 829 831 833 835 836 838 840 841 843 844 845 845 845 846 847 848 848 847 846 844 842 841 839 835 833 834 835 833 833 833 831 830 829 828 828 828 827 827 827 828 827 823 821 821 819 816 813
735 737 740 742 745 748 752 755 757 760 762 765 767 770 772 775 778 781 783 786 788 790 792 795 797 800 802 804 806 808 811 813 815 817 819 822 824 826 828 830 831 833 834 836 837 839 840 841 842 842 842 843 844 844 844 844 842 840 840 838 835 830 829 832 832 830 829 828 826 825 824 823 823 823 822 822 822 823 823 821 820 819 815 812 811
734 737 739 742 745 748 751 754 756 759 761 764 766 769 771 774 777 780 783 785 788 790 792 794 797 798 800 803 805 807 809 811 814 816 818 820 822 824 826 828 828 830 832 833 835 835 836 837 838 839 839 840 840 840 840 840 839 837 836 835 831 828 828 830 829 827 826 824 822 821 819 818 818 817 817 816 816 816 817 816 816 815 813 810 809
734 736 739 742 745 748 751 753 756 758 761 763 766 768 771 773 776 779 781 784 787 789 791 793 796 797 799 802 804 806 808 810 812 814 816 818 820 822 824 825 827 828 830 831 832 832 833 834 835 836 837 837 837 837 836 836 836 834 832 830 829 828 828 827 825 823 822 820 818 816 814 813 812 811 811 810 810 810 810 810 810 810 809 807 805
734 737 740 742 745 748 751 754 756 758 761 763 766 769 771 774 776 778 781 783 786 788 790 793 795 797 799 801 803 805 807 809 811 812 814 816 818 820 822 823 825 827 827 828 829 829 830 831 832 833 834 833 833 833 833 833 833 832 830 828 828 827 826 824 822 820 818 816 814 812 810 809 808 807 806 805 804 804 804 804 804 804 804 803 801
734 737 740 743 746 749 751 754 756 758 761 763 766 768 771 774 776 778 781 784 786 788 790 792 794 797 799 801 802 804 806 808 809 811 813 815 816 818 820 821 823 824 825 825 826 827 828 828 829 830 830 830 830 829 829 830 829 828 827 826 826 825 823 822 820 818 816 813 811 809 807 806 805 804 803 801 800 800 800 799 800 799 799 798 797
735 738 741 743 746 749 751 754 757 759 761 763 766 769 771 774 777 779 782 784 786 788 790 792 794 796 798 800 801 803 804 806 808 809 811 813 814 816 817 819 820 822 822 823 823 824 825 826 826 827 827 827 826 826 826 826 826 825 824 823 822 821 820 818 817 815 813 811 809 808 806 805 804 802 801 799 798 797 797 796 796 795 795 794 793
736 739 742 744 747 749 751 754 757 759 761 764 766 769 772 774 777 780 782 784 786 788 790 792 793 795 797 798 799 801 802 804 806 807 809 810 812 813 814 816 817 819 820 820 821 822 823 823 823 823 823 823 823 823 823 823 823 822 821 820 819 818 817 816 814 813 811 809 807 806 804 804 803 801 799 798 797 795 794 793 792 792 791 790 789
738 740 742 745 747 750 752 755 758 761 763 765 767 770 772 775 777 780 782 784 785 786 788 790 792 793 795 796 797 799 801 802 804 805 806 808 809 810 812 813 814 816 817 818 819 820 820 820 820 820 820 820 820 820 820 820 819 819 818 817 817 816 815 814 813 811 809 808 806 805 803 802 801 799 797 796 795 793 792 791 790 789 788 787 786
739 741 743 745 748 750 753 756 759 761 764 766 768 770 772 774 776 778 780 781 783 784 786 788 789 791 793 794 796 798 799 801 802 803 804 806 807 808 810 811 812 813 814 815 816 817 817 818 818 818 818 818 818 818 817 817 817 816 816 816 815 814 813 812 811 810 808 807 805 804 802 800 799 797 796 794 793 791 790 789 788 786 785 785 783
739 741 743 745 748 751 754 756 759 762 764 766 769 771 773 774 775 777 778 779 781 782 784 786 788 789 791 793 795 797 799 800 801 802 803 805 806 807 808 809 810 811 812 813 814 815 815 815 816 816 816 816 816 816 816 816 815 815 814 814 813 812 812 811 810 808 807 806 804 802 801 799 797 795 794 792 791 790 788 787 786 785 784 783 781
739 741 744 746 749 752 754 757 759 762 764 767 769 771 773 774 776 777 778 779 781 783 784 786 788 789 791 793 794 796 798 799 800 802 803 804 806 807 808 809 810 810 811 812 813 813 814 814 815 815 815 815 815 815 814 814 814 813 813 812 812 811 810 809 808 807 806 805 803 802 800 798 797 795 793 791 790 789 787 786 784 783 782 781 780
740 742 745 747 750 752 755 757 760 762 764 766 768 770 773 775 776 778 779 780 782 783 784 786 788 789 791 793 794 796 797 798 800 801 803 804 805 806 807 808 809 809 810 811 812 812 812 813 813 813 814 814 813 813 813 812 812 812 811 811 810 810 809 808 807 806 805 804 802 801 799 797 795 794 792 790 789 787 786 784 783 782 781 780 778
740 743 745 748 750 752 755 757 759 762 764 766 767 769 772 775 777 778 780 781 782 783 785 786 787 789 791 792 794 795 796 798 799 801 802 804 805 806 807 807 808 808 809 810 810 811 811 811 812 812 812 812 812 811 811 811 811 810 810 809 809 808 807 807 806 805 804 803 801 800 798 797 795 793 792 790 788 786 785 783 781 780 780 778 777
740 742 745 747 750 752 754 756 758 761 763 765 767 769 771 774 777 780 781 782 783 784 786 787 788 789 791 792 793 795 796 798 799 801 802 804 805 806 806 807 807 807 808 808 809 809 809 810 810 810 810 811 810 810 810 810 810 809 809 808 808 807 806 805 804 803 802 801 800 799 797 796 794 793 791 789 787 785 784 783 781 779 778 777 775
741 743 745 747 749 751 754 756 758 760 762 764 766 769 770 772 775 779 782 784 785 786 787 788 789 790 791 792 793 795 796 798 799 801 802 803 804 805 805 805 805 805 806 807 808 808 808 808 809 809 809 809 809 809 809 809 808 808 808 807 807 806 805 803 802 801 801 800 799 798 796 795 793 792 790 789 787 785 783 782 781 779 777 775 774
742 744 745 747 749 751 753 755 757 759 762 764 766 768 770 772 773 776 779 782 785 787 788 789 790 791 792 793 794 795 796 798 799 800 801 802 803 803 803 803 804 804 805 806 806 807 807 807 808 808 808 808 808 808 808 808 807 807 806 806 805 804 803 802 801 800 799 798 797 796 795 794 792 791 790 788 787 785 783 782 780 779 777 775 773
743 745 746 748 749 751 753 755 757 759 761 763 765 767 769 771 774 776 777 780 782 785 787 789 790 791 792 793 794 795 796 797 798 799 800 800 801 801 802 802 803 803 803 804 805 805 806 806 806 807 807 807 807 806 806 806 805 805 804 804 803 802 801 800 800 799 798 797 796 795 794 793 791 790 789 788 786 785 783 782 780 779 777 776 774
744 745 747 748 750 751 753 755 757 759 761 763 765 767 769 771 773 775 777 779 781 784 786 788 790 791 792 793 794 795 796 796 797 798 798 799 800 800 800 801 801 801 802 802 803 804 804 804 805 805 805 805 805 805 804 804 803 803 803 802 801 801 800 799 798 797 796 796 795 794 793 791 790 789 788 787 786 784 783 781 780 778 777 775 774
744 745 747 748 750 752 753 755 757 759 761 763 765 767 769 772 773 775 777 779 781 783 785 787 789 790 791 792 793 794 795 795 796 797 798 798 798 799 799 799 800 800 801 801 802 802 802 803 803 803 803 803 803 803 802 802 802 801 801 800 800 799 799 798 797 796 795 794 793 792 791 790 789 788 787 786 785 783 782 781 779 777 776 775 773
745 746 747 749 750 752 753 755 757 759 762 764 766 767 769 771 773 775 777 779 780 782 784 786 788 789 790 792 793 793 794 795 796 796 797 797 797 798 798 798 799 799 799 800 800 801 801 801 801 801 801 801 801 801 801 800 800 800 799 799 798 798 797 796 796 795 794 793 792 791 790 789 788 787 786 784 783 782 781 779 778 776 775 774 772
746 747 749 750 751 752 754 755 757 759 762 764 765 767 769 770 772 774 776 778 780 782 783 785 787 788 789 791 792 793 794 794 795 795 796 796 796 797 797 797 797 798 798 798 799 799 799 799 799 800 800 800 800 799 799 799 798 798 797 797 797 796 795 795 794 793 792 791 791 790 789 788 786 785 784 783 782 781 779 778 777 776 774 773 771
745 747 749 750 752 753 755 756 758 760 761 763 765 766 768 770 771 773 775 777 779 781 783 785 786 787 789 790 791 792 793 794 794 794 795 795 795 795 796 796 796 796 797 797 797 797 797 798 798 798 798 798 798 798 797 797 796 796 796 795 795 794 793 793 792 791 790 790 789 788 787 786 785 784 783 782 781 780 778 777 776 775 774 772 770
745 747 749 751 752 754 755 757 758 760 761 763 764 766 768 769 771 773 775 777 779 780 782 784 785 787 788 789 790 792 792 792 793 793 793 794 794 794 794 795 795 795 795 795 795 795 795 796 796 796 796 796 796 796 795 795 794 794 794 793 792 792 791 791 790 789 789 788 787 786 785 785 784 783 782 781 780 778 777 776 775 774 773 771 770
745 747 749 751 753 754 755 757 758 760 762 763 764 766 768 770 771 773 775 777 778 780 782 783 785 786 788 789 790 790 791 791 792 792 792 792 793 793 793 793 793 793 793 793 793 793 794 794 794 794 794 794 794 794 793 793 792 792 791 791 790 790 789 789 788 787 787 786 785 784 784 783 782 781 780 779 778 777 776 775 774 773 771 770 769
746 748 749 751 753 754 755 756 758 760 761 763 765 767 768 770 772 774 775 777 778 780 781 783 784 785 787 788 789 789 789 790 790 790 791 791 791 791 791 792 792 792 792 791 791 791 792 792 792 792 792 792 792 791 791 790 790 789 789 788 788 787 787 786 786 785 785 784 783 782 782 781 780 779 778 778 777 775 774 773 772 771 770 769 768
747 748 750 751 753 754 755 756 758 760 762 763 765 767 769 771 773 774 775 777 778 780 781 782 783 784 785 786 787 787 788 788 788 789 789 790 790 790 790 790 790 790 790 789 789 789 789 790 790 790 790 790 790 789 789 788 787 787 786 786 785 785 784 784 783 783 782 782 781 780 779 779 778 777 777 776 775 774 773 772 771 770 769 768 767
747 748 750 751 752 754 755 757 759 760 762 764 766 768 770 771 773 774 776 777 778 779 780 781 782 783 784 784 785 785 786 786 787 788 788 788 788 788 788 788 788 788 788 787 787 787 787 787 787 787 787 787 787 786 786 785 785 784 783 783 782 782 782 781 781 780 780 779 779 778 777 777 776 775 775 774 773 772 771 770 769 769 768 766 766
748 749 750 751 752 754 756 757 759 761 762 764 766 768 770 772 773 774 776 777 777 778 779 780 781 782 782 783 783 784 784 785 786 786 787 787 786 786 786 786 786 786 786 785 785 785 785 785 784 784 784 784 784 784 783 782 782 781 781 780 780 779 779 779 778 777 777 777 776 776 775 774 774 773 773 772 771 770 769 768 768 767 766 765 764
748 749 750 751 753 755 757 758 760 762 763 765 766 768 770 771 773 774 775 776 777 778 778 779 780 780 780 781 782 782 783 784 784 784 785 785 784 784 784 784 784 784 784 783 783 782 782 782 782 781 781 781 781 781 780 780 779 778 778 777 777 776 776 776 775 775 774 774 773 773 773 772 772 771 770 770 769 768 767 766 766 765 764 763 762
748 749 751 753 754 756 757 759 760 762 764 765 767 768 770 771 772 773 774 775 776 776 777 778 778 779 779 780 781 781 782 782 782 783 783 783 782 782 782 782 782 782 781 781 780 780 779 779 779 778 778 778 778 777 777 777 776 775 775 775 774 774 773 773 772 772 772 771 771 770 770 770 769 769 768 768 767 766 765 765 764 763 763 762 761
749 750 752 754 755 757 758 760 761 763 764 766 767 768 769 770 771 772 773 774 774 775 776 776 777 777 778 779 779 780 780 780 780 781 781 780 780 780 780 780 779 779 779 778 778 777 776 776 775 775 775 775 775 774 774 773 773 772 772 771 771 771 770 770 769 769 769 768 768 768 768 767 767 767 767 766 765 765 764 763 762 762 761 761 760
750 752 753 755 756 758 759 761 762 764 765 766 767 768 769 770 770 771 772 773 773 774 774 775 775 776 777 777 778 778 778 778 778 779 778 778 778 778 777 777 777 776 776 775 775 774 773 773 772 772 772 772 771 771 770 770 769 769 769 768 768 768 767 767 767 766 766 766 765 765 765 765 765 765 765 764 764 763 762 762 761 760 760 759 758
751 753 755 756 757 759 760 762 763 764 765 766 767 768 768 769 770 770 771 771 772 772 773 773 774 775 775 776 776 776 776 776 776 776 776 776 775 775 774 774 773 773 773 772 771 771 770 770 769 769 769 768 768 768 767 766 766 766 765 765 765 764 764 764 764 763 763 763 763 762 762 762 762 762 762 762 762 761 760 760 759 759 758 758 757